TimeCDT,TemperatureF,Dew PointF,Humidity,Sea Level PressureIn,VisibilityMPH,Wind Direction,Wind SpeedMPH,Gust SpeedMPH,PrecipitationIn,Events,Conditions,WindDirDegrees,DateUTC
12:15 AM,56.1,50.0,80,30.23,10.0,SE,4.6,-,N/A,,Mostly Cloudy,140,2013-09-17 05:15:00
12:35 AM,56.5,50.4,80,30.23,10.0,SSE,4.6,-,N/A,,Scattered Clouds,150,2013-09-17 05:35:00
12:55 AM,57.2,50.9,79,30.22,10.0,SE,6.9,-,N/A,,Scattered Clouds,140,2013-09-17 05:55:00
1:15 AM,57.6,51.1,79,30.22,10.0,SSE,5.8,-,N/A,,Mostly Cloudy,150,2013-09-17 06:15:00
1:35 AM,57.7,51.4,79,30.22,10.0,SE,6.9,-,N/A,,Mostly Cloudy,140,2013-09-17 06:35:00
1:55 AM,58.1,51.8,80,30.21,10.0,SE,6.9,-,N/A,,Mostly Cloudy,140,2013-09-17 06:55:00
2:15 AM,58.5,51.8,79,30.20,10.0,SSE,6.9,-,N/A,Rain,Light Rain,150,2013-09-17 07:15:00
2:35 AM,58.5,52.5,81,30.20,10.0,SSE,6.9,-,N/A,,Drizzle,150,2013-09-17 07:35:00
2:55 AM,58.1,53.6,85,30.19,10.0,SSE,6.9,-,N/A,Rain,Rain,160,2013-09-17 07:55:00
3:15 AM,58.1,54.5,88,30.19,10.0,SSE,8.1,-,N/A,Rain,Rain,160,2013-09-17 08:15:00
3:35 AM,57.6,54.5,90,30.19,7.0,SSE,6.9,-,N/A,Rain,Light Rain,160,2013-09-17 08:35:00
3:55 AM,57.6,54.9,91,30.18,7.0,SSE,6.9,-,0.02,Rain,Rain,160,2013-09-17 08:55:00
4:15 AM,57.6,55.0,91,30.18,7.0,SSE,5.8,-,0.01,Rain,Light Rain,160,2013-09-17 09:15:00
4:35 AM,57.7,55.2,91,30.17,7.0,SSE,9.2,-,0.02,Rain,Rain,160,2013-09-17 09:35:00
4:55 AM,57.7,55.4,92,30.16,7.0,South,8.1,-,0.03,Rain,Rain,170,2013-09-17 09:55:00
5:15 AM,58.1,55.4,91,30.16,7.0,SSE,9.2,-,N/A,Rain,Rain,160,2013-09-17 10:15:00
5:35 AM,58.1,55.6,91,30.15,7.0,SSE,9.2,-,0.01,Rain,Light Rain,160,2013-09-17 10:35:00
5:55 AM,58.3,55.8,91,30.15,7.0,SSE,10.4,-,0.01,Rain,Rain,160,2013-09-17 10:55:00
6:15 AM,58.1,55.6,91,30.15,5.0,SSE,8.1,-,0.01,Rain,Rain,160,2013-09-17 11:15:00
6:35 AM,58.1,55.8,92,30.14,7.0,SSE,6.9,-,0.01,Rain,Light Rain,160,2013-09-17 11:35:00
6:55 AM,58.3,55.9,92,30.14,7.0,SSE,6.9,-,0.01,,Drizzle,160,2013-09-17 11:55:00
7:15 AM,58.5,56.1,92,30.14,7.0,South,6.9,-,N/A,,Overcast,170,2013-09-17 12:15:00
7:35 AM,58.5,56.1,92,30.14,7.0,SSE,9.2,-,N/A,,Overcast,160,2013-09-17 12:35:00
7:55 AM,59.0,56.3,91,30.13,7.0,SSE,10.4,-,N/A,,Overcast,160,2013-09-17 12:55:00
8:15 AM,59.0,56.5,91,30.12,10.0,SSE,11.5,16.1,N/A,,Light Drizzle,150,2013-09-17 13:15:00
8:35 AM,59.4,56.7,91,30.12,10.0,SSE,10.4,-,0.01,,Overcast,160,2013-09-17 13:35:00
8:55 AM,59.5,56.8,91,30.12,10.0,SSE,13.8,17.3,0.01,,Overcast,160,2013-09-17 13:55:00
9:15 AM,59.7,56.8,90,30.11,5.0,SSE,10.4,18.4,N/A,,Overcast,150,2013-09-17 14:15:00
9:35 AM,59.5,57.2,92,30.11,5.0,SSE,11.5,-,N/A,,Overcast,150,2013-09-17 14:35:00
9:55 AM,59.5,57.2,92,30.11,5.0,SSE,8.1,-,N/A,,Overcast,150,2013-09-17 14:55:00
10:15 AM,59.5,57.4,93,30.11,4.0,SSE,10.4,16.1,N/A,,Overcast,160,2013-09-17 15:15:00
10:35 AM,59.7,57.7,93,30.10,3.0,SSE,11.5,18.4,N/A,,Overcast,160,2013-09-17 15:35:00
10:55 AM,59.9,58.1,94,30.10,4.0,SSE,11.5,-,N/A,,Overcast,160,2013-09-17 15:55:00
11:15 AM,60.4,58.5,93,30.09,4.0,SSE,11.5,-,N/A,,Overcast,160,2013-09-17 16:15:00
11:35 AM,61.0,59.0,93,30.08,4.0,SSE,10.4,16.1,N/A,,Overcast,160,2013-09-17 16:35:00
11:55 AM,61.3,59.2,93,30.07,4.0,South,9.2,-,N/A,,Overcast,170,2013-09-17 16:55:00
12:15 PM,61.9,59.7,93,30.06,4.0,South,12.7,16.1,N/A,,Overcast,170,2013-09-17 17:15:00
12:35 PM,62.1,59.7,92,30.06,4.0,SSE,11.5,-,N/A,,Overcast,160,2013-09-17 17:35:00
12:55 PM,62.6,59.9,91,30.05,4.0,SSE,12.7,-,N/A,,Overcast,160,2013-09-17 17:55:00
1:15 PM,63.0,60.1,90,30.04,4.0,SSE,9.2,-,N/A,,Overcast,160,2013-09-17 18:15:00
1:35 PM,63.5,60.3,89,30.04,5.0,South,10.4,-,N/A,,Overcast,170,2013-09-17 18:35:00
1:55 PM,63.9,60.4,89,30.02,5.0,SSE,9.2,-,N/A,,Overcast,150,2013-09-17 18:55:00
2:15 PM,64.4,60.8,88,30.01,5.0,SSE,11.5,-,N/A,,Overcast,150,2013-09-17 19:15:00
2:35 PM,64.6,60.8,88,30.00,5.0,South,10.4,-,N/A,,Overcast,170,2013-09-17 19:35:00
2:55 PM,65.1,61.3,88,29.99,5.0,SSE,8.1,-,N/A,,Overcast,160,2013-09-17 19:55:00
3:15 PM,65.3,61.7,88,29.99,5.0,SSE,8.1,-,N/A,,Overcast,160,2013-09-17 20:15:00
3:35 PM,65.5,61.7,88,29.98,7.0,SSE,12.7,16.1,N/A,,Overcast,160,2013-09-17 20:35:00
3:55 PM,65.7,61.9,88,29.97,5.0,SSE,9.2,-,N/A,,Overcast,150,2013-09-17 20:55:00
4:15 PM,66.2,62.2,87,29.96,7.0,SSE,9.2,-,N/A,,Overcast,150,2013-09-17 21:15:00
4:35 PM,66.6,62.2,86,29.96,7.0,SSE,8.1,-,N/A,,Overcast,150,2013-09-17 21:35:00
4:55 PM,66.6,62.4,86,29.95,7.0,SSE,9.2,-,N/A,,Overcast,150,2013-09-17 21:55:00
5:15 PM,67.1,62.8,86,29.95,7.0,SSE,9.2,-,N/A,,Overcast,150,2013-09-17 22:15:00
5:35 PM,67.1,63.0,87,29.94,7.0,SE,8.1,-,N/A,,Overcast,140,2013-09-17 22:35:00
5:55 PM,67.1,63.3,88,29.94,5.0,SE,12.7,-,N/A,,Overcast,140,2013-09-17 22:55:00
6:15 PM,66.7,63.9,90,29.92,2.5,SSE,9.2,-,N/A,,Overcast,150,2013-09-17 23:15:00
6:35 PM,66.6,63.9,91,29.92,4.0,SSE,6.9,-,N/A,,Overcast,150,2013-09-17 23:35:00
6:55 PM,66.4,63.9,92,29.92,4.0,SSE,6.9,-,N/A,,Overcast,150,2013-09-17 23:55:00
7:15 PM,66.2,63.9,92,29.92,2.0,SSE,8.1,-,N/A,Rain,Rain,160,2013-09-18 00:15:00
7:35 PM,66.2,64.0,93,29.92,4.0,SE,4.6,-,N/A,,Light Drizzle,140,2013-09-18 00:35:00
7:55 PM,65.8,63.9,93,29.92,4.0,SE,5.8,-,N/A,,Drizzle,140,2013-09-18 00:55:00
8:15 PM,66.2,64.0,93,29.92,3.0,SSE,3.5,-,N/A,,Drizzle,150,2013-09-18 01:15:00
8:35 PM,66.2,64.2,93,29.92,3.0,SSE,4.6,-,N/A,,Drizzle,160,2013-09-18 01:35:00
8:55 PM,66.2,64.4,94,29.91,4.0,South,5.8,-,N/A,,Light Drizzle,170,2013-09-18 01:55:00
9:15 PM,66.4,64.4,93,29.92,4.0,South,5.8,-,N/A,,Light Drizzle,170,2013-09-18 02:15:00
9:35 PM,66.7,64.6,93,29.91,5.0,SSE,9.2,-,N/A,,Overcast,160,2013-09-18 02:35:00
9:55 PM,67.1,64.4,91,29.91,5.0,SSE,10.4,16.1,N/A,,Overcast,150,2013-09-18 02:55:00
10:15 PM,67.3,64.6,91,29.91,5.0,SSE,11.5,-,N/A,,Overcast,160,2013-09-18 03:15:00
10:35 PM,67.3,64.6,91,29.91,5.0,SSE,9.2,-,N/A,,Overcast,160,2013-09-18 03:35:00
11:15 PM,68.0,65.3,91,29.90,5.0,SSE,10.4,-,N/A,,Overcast,160,2013-09-18 04:15:00
11:35 PM,68.2,65.5,91,29.90,5.0,SSE,10.4,-,N/A,,Overcast,160,2013-09-18 04:35:00
11:55 PM,68.5,65.7,90,29.90,5.0,SSE,9.2,-,N/A,,Overcast,160,2013-09-18 04:55:00